Torna al catalogo

FENGYUN 1C DEB

AttivoSSO
NORAD 31979·DEBRIS·🇨🇳 China

Lanciato May 10, 1999 da Taiyuan Satellite Launch Center

Loading…

Prossimi Passaggi (prossime 24 ore)

TLE

AggiornatoSource: Space-Track

Epoca: Sep 14, 2026, 11:27 UTC

1 31979U 99025CPG 26257.47742511  .00002177  00000-0  19619-2 0  9992
2 31979  99.3830 348.3634 0261122 284.2281  72.9993 13.70797433616887

Traccia FENGYUN 1C DEB in tempo reale con AllMySat

Download on the App Store